New York Downtown Manhattan/w, NY

8:53 PM EST on December 06, 2019 (GMT -0500)
New York Downtown Manhattan/w

Weather History for KJRB - August, 2019

Change the Weather History Date:

Thursday, August 15, 2019

  Actual Average (KEWR) Record (KEWR)
Temperature  
Mean Temperature 77 °F -  
Max Temperature 82 °F 84 °F 99 °F (1988)
Min Temperature 72 °F 69 °F 54 °F (1964)
Cooling Degree Days 12    
Growing Degree Days 27 (Base 50)    
Moisture  
Dew Point 68 °F    
Average Humidity 77    
Maximum Humidity 91    
Minimum Humidity 51    
Precipitation  
Precipitation 0.00 in - - ()
Sea Level Pressure  
Sea Level Pressure 29.99 in    
Wind  
Wind Speed 7 mph (East)    
Max Wind Speed 12 mph    
Max Gust Speed 17 mph    
Visibility 10 miles    
Events      
Averages and records for this station are not official NWS values.
T = Trace of Precipitation, MM = Missing Value Source: NWS Daily Summary

Daily Weather History Graph

Daily Weather History Graph

Search for Another Location

Airport or City:

Astronomy

Aug. 15, 2019 Rise Set
Actual Time 6:06 AM EDT 7:54 PM EDT
Civil Twilight 5:36 AM EDT 8:23 PM EDT
Nautical Twilight 5:00 AM EDT 8:59 PM EDT
Astronomical Twilight 4:22 AM EDT 9:37 PM EDT
Moon 8:21 PM EDT (8/15) 5:57 AM EDT (8/15)
Length of Visible Light 14h 46m
Length of Day
13h 48m
Full, 100% of the Moon is Illuminated
Aug 15
Full
Aug 23
Last Quarter
Aug 30
New
Sep 5
First Quarter
Sep 14
Full

Hourly Weather History & Observations

Time (EDT) Temp. Heat Index Dew Point Humidity Pressure Visibility Wind Dir Wind Speed Gust Speed Precip Events Conditions
12:56 AM 73.9 °F - 71.1 °F 91% 29.94 in 7.0 mi Variable 5.8 mph - N/A   Partly Cloudy
1:03 AM 73.4 °F - 69.8 °F 88% 29.94 in 7.0 mi SE 5.8 mph - N/A   Mostly Cloudy
1:49 AM 73.4 °F - 69.8 °F 88% 29.95 in 8.0 mi NE 5.8 mph - N/A   Partly Cloudy
1:56 AM 73.0 °F - 69.1 °F 87% 29.95 in 9.0 mi ENE 5.8 mph - N/A   Partly Cloudy
2:09 AM 73.4 °F - 69.8 °F 88% 29.95 in 10.0 mi NE 6.9 mph - N/A   Mostly Cloudy
2:56 AM 73.0 °F - 68.0 °F 84% 29.95 in 10.0 mi NE 6.9 mph - N/A   Overcast
3:56 AM 73.0 °F - 68.0 °F 84% 29.95 in 10.0 mi NE 4.6 mph - N/A   Overcast
4:56 AM 73.0 °F - 68.0 °F 84% 29.96 in 10.0 mi ENE 6.9 mph - N/A   Overcast
5:56 AM 73.0 °F - 68.0 °F 84% 29.96 in 10.0 mi ENE 5.8 mph - N/A   Mostly Cloudy
6:41 AM 73.4 °F - 68.0 °F 83% 29.98 in 10.0 mi NE 8.1 mph - N/A   Partly Cloudy
6:56 AM 73.0 °F - 68.0 °F 84% 29.98 in 10.0 mi NE 8.1 mph - N/A   Clear
7:56 AM 73.9 °F - 68.0 °F 82% 29.99 in 10.0 mi ENE 11.5 mph - N/A   Clear
8:56 AM 75.9 °F - 69.1 °F 79% 30.00 in 10.0 mi ENE 6.9 mph - N/A   Scattered Clouds
9:56 AM 78.1 °F - 68.0 °F 71% 30.02 in 10.0 mi East 8.1 mph - N/A   Partly Cloudy
10:56 AM 81.0 °F 83.3 °F 66.9 °F 62% 30.03 in 10.0 mi NE 9.2 mph - N/A   Clear
11:56 AM 82.0 °F 84.5 °F 66.9 °F 60% 30.02 in 10.0 mi Variable 4.6 mph - N/A   Clear
12:56 PM 78.1 °F - 69.1 °F 74% 30.02 in 10.0 mi WSW 9.2 mph - N/A   Mostly Cloudy
1:56 PM 80.1 °F 83.2 °F 70.0 °F 71% 30.01 in 10.0 mi WSW 4.6 mph - N/A   Partly Cloudy
2:56 PM 82.0 °F 84.5 °F 66.9 °F 60% 30.00 in 10.0 mi SE 10.4 mph - N/A   Clear
3:56 PM 82.0 °F 83.0 °F 62.1 °F 51% 30.00 in 10.0 mi SE 10.4 mph - N/A   Clear
4:56 PM 80.1 °F 81.2 °F 62.1 °F 54% 29.99 in 10.0 mi SSE 10.4 mph 17.3 mph N/A   Clear
5:56 PM 75.9 °F - 66.0 °F 71% 30.01 in 10.0 mi SE 9.2 mph - N/A   Clear
6:56 PM 75.0 °F - 66.9 °F 76% 30.01 in 10.0 mi SSE 6.9 mph - N/A   Partly Cloudy
7:12 PM 75.2 °F - 66.2 °F 73% 30.01 in 10.0 mi East 6.9 mph - N/A   Mostly Cloudy
7:42 PM 73.4 °F - 66.2 °F 78% 30.01 in 10.0 mi SE 9.2 mph - N/A   Scattered Clouds
7:56 PM 73.0 °F - 66.0 °F 79% 30.01 in 10.0 mi SSE 8.1 mph - N/A   Partly Cloudy
8:56 PM 73.0 °F - 66.9 °F 81% 30.02 in 10.0 mi SE 3.5 mph - N/A   Mostly Cloudy
9:56 PM 73.0 °F - 66.9 °F 81% 30.02 in 10.0 mi East 4.6 mph - N/A   Overcast
10:56 PM 72.0 °F - 66.9 °F 84% 30.03 in 10.0 mi East 5.8 mph - N/A   Mostly Cloudy
11:56 PM 72.0 °F - 66.9 °F 84% 30.04 in 10.0 mi ENE 5.8 mph - N/A   Mostly Cloudy